Location: Newark
(45.8667°N, 9.7333°E)
Time: 01:12:59
(UTC+00:00)

Vanguard 3 - Pass Details

Date: 31 January 2020
Orbit: 508 x 3263 km, 33.3° (Epoch: 26 February)

Event Time Altitude Azimuth Distance (km) Brightness Sun altitude
Rises 17:11:59 0° 255° (WSW) 6,781 14.4 -8.6°
Reaches altitude 10° 17:16:20 10° 252° (WSW) 5,964 13.2 -9.3°
Maximum altitude 17:35:06 55° 182° (S) 3,620 10.5 -12.5°
Drops below altitude 10° 17:51:30 10° 111° (ESE) 5,292 10.8 -15.3°
Enters shadow 17:51:40 10° 111° (ESE) 5,322 10.8 -15.3°
Sets 17:55:06 0° 107° (ESE) 6,006 - -15.9°
